Погода в Мыёлдине

Россия / Республика Коми     61°46′03″N   54°53′48″E
темп.,
°C
ветер,
м/с
пор.,
м/с
влажн.,
%
обл.,
%
осадки,
мм/ч
давл.,
гПа
погр.,
м
26 февраля, пт
пт2600:00−23ююв2797100 0.0 1024185
03:00−23ююв2896100 0.0 1024226
06:00−25ююв399684 0.0 1023198
09:00−22ю389288 0.0 1022341
12:00−17ююв488329 0.0 1021497
15:00−16ююв4108414 0.0 1019546
18:00−20ююв311930 0.0 1018410
21:00−20ююв3119421 0.0 1017403
27 февраля, сб
сб2700:00−21юв3109539 0.0 1016299
03:00−22юв399526 0.0 1016233
06:00−22юв399516 0.0 1015225
09:00−18юв378812 0.0 1014262
12:00−13вюв35820 0.0 1013417
15:00−12всв36830 0.0 1013503
18:00−17всв23940 0.0 101359
21:00−19вюв23940 0.0 101432
28 февраля, вс
вс2800:00−22юв12940 0.0 101520
03:00−23юв11920 0.0 101620
06:00−25вюв11920 0.0 101620
09:00−19в11870 0.0 1015168
12:00−13св11820 0.0 1015359
15:00−13ссв128710 0.0 1015327
18:00−19св11960 0.0 101620
21:00−21юз00965 0.0 101720
1 марта, пн
пн100:00−20юз119689 0.0 101820
03:00−21ююз129784 0.0 101920
06:00−21ююз229872 0.0 101831
09:00−17ююз259474 0.0 1018230
12:00−13ююз369073 0.0 1016416
15:00−12ююз489181 0.0 1015497
18:00−14ю4119493 0.0 1012394
21:00−14ю5129393 0.0 1010420
2 марта, вт
вт200:00−14ю51292100 0.0 1008458
03:00−15ю51193100 0.1 1005492
06:00−15ю51294100 0.3 1003529
09:00−14ю51093100 0.8 1002545
12:00−12ю4891100 0.4 1002608
15:00−11ю4792100 0.9 1002618
18:00−12ююв3895100 0.3 1002383
21:00−13ююв3795100 0.5 1003283